Location: Capel Gartheli
(52.1833°N, 4.0667°W)
Time: 20:38:54
(UTC+00:00)

SJ-12 - Pass Details

Date: 18 February 2020
Orbit: 569 x 585 km, 97.7° (Epoch: 03 April)

Event Time Altitude Azimuth Distance (km) Brightness Sun altitude
Rises 05:56:31 0° 11° (NNE) 2,813 7.6 -14.5°
Reaches altitude 10° 05:58:41 10° 9° (N) 1,911 6.7 -14.1°
Maximum altitude 06:02:48 66° 288° (WNW) 640 3.9 -13.5°
Drops below altitude 10° 06:06:54 10° 206° (SSW) 1,903 6.3 -12.9°
Sets 06:09:03 0° 203° (SSW) 2,799 7.2 -12.5°
